Location: Newark
(25.0000°N, 73.5000°E)
Time: 04:44:18
(UTC+00:00)

Altair - Pass Details

Date: 09 March 2021
Orbit: 1501 x 1683 km, 47.2° (Epoch: 12 April)

Event Time Altitude Azimuth Distance (km) Brightness Sun altitude
Rises 16:39:30 0° 316° (NW) 4,675 10.7 -47.0°
Reaches altitude 10° 16:43:20 10° 329° (NNW) 3,716 9.9 -47.8°
Enters shadow 16:47:37 21° 355° (N) 2,942 9.1 -48.7°
Maximum altitude 16:50:45 25° 22° (NNE) 2,759 - -49.3°
Drops below altitude 10° 16:58:21 10° 74° (ENE) 3,826 - -50.9°
Sets 17:02:20 0° 87° (E) 4,841 - -51.7°
